DAL2227 KJFK-KATL

Flight info

Callsign DAL2227
Flight time 1h 50m
Altitude 34000
Route RBV Q430 BYRDD J48 MOL FLASK OZZZI1
Aircraft A21N/M-SDE2E3FGHIRWXY/LB1

Departure

Time 2026-05-05 23:53
Airport John F. Kennedy International Airport (KJFK)

Arrival

Time 2026-05-06 01:43
Airport Hartsfield Jackson Atlanta International Airport (KATL)
Time Latitude Longitude Altitude Speed Heading
2026-05-05 23:12 40.64073 -73.78124 19 ft 0 kts 240°
2026-05-05 23:30 40.64076 -73.78118 28 ft 4 kts 239°
2026-05-05 23:30 40.64085 -73.78098 28 ft 4 kts 235°
2026-05-05 23:30 40.64108 -73.78063 28 ft 4 kts 219°
2026-05-05 23:30 40.64131 -73.78046 28 ft 4 kts 187°
2026-05-05 23:31 40.64147 -73.78049 28 ft 1 kts 151°
2026-05-05 23:31 40.64149 -73.78051 28 ft 0 kts 151°
2026-05-05 23:35 40.64131 -73.78038 28 ft 1 kts 151°
2026-05-05 23:35 40.64120 -73.78030 28 ft 3 kts 151°
2026-05-05 23:35 40.64093 -73.78010 28 ft 7 kts 151°
2026-05-05 23:35 40.64047 -73.77977 28 ft 9 kts 151°
2026-05-05 23:36 40.63991 -73.77949 28 ft 8 kts 174°
2026-05-05 23:36 40.63926 -73.77940 28 ft 11 kts 173°
2026-05-05 23:36 40.63843 -73.77927 28 ft 13 kts 173°
2026-05-05 23:36 40.63746 -73.77912 28 ft 15 kts 173°
2026-05-05 23:37 40.63649 -73.77897 28 ft 9 kts 172°
2026-05-05 23:37 40.63595 -73.77881 28 ft 7 kts 155°
2026-05-05 23:37 40.63559 -73.77839 28 ft 7 kts 125°
2026-05-05 23:37 40.63526 -73.77771 27 ft 10 kts 120°
2026-05-05 23:38 40.63517 -73.77749 27 ft 0 kts 114°
2026-05-05 23:38 40.63516 -73.77743 27 ft 4 kts 110°
2026-05-05 23:39 40.63563 -73.77671 27 ft 4 kts
2026-05-05 23:39 40.63591 -73.77647 25 ft 6 kts 37°
2026-05-05 23:39 40.63638 -73.77622 25 ft 9 kts 16°
2026-05-05 23:39 40.63699 -73.77568 26 ft 13 kts 39°
2026-05-05 23:40 40.63783 -73.77494 23 ft 16 kts 33°
2026-05-05 23:40 40.63885 -73.77413 26 ft 19 kts 31°
2026-05-05 23:40 40.64004 -73.77320 27 ft 21 kts 32°
2026-05-05 23:40 40.64131 -73.77221 30 ft 22 kts 30°
2026-05-05 23:41 40.64272 -73.77115 28 ft 24 kts 30°
2026-05-05 23:41 40.64407 -73.77010 27 ft 19 kts 28°
2026-05-05 23:41 40.64449 -73.77000 25 ft 4 kts
2026-05-05 23:41 40.64514 -73.76977 24 ft 5 kts 52°
2026-05-05 23:42 40.64546 -73.76952 24 ft 6 kts 35°
2026-05-05 23:42 40.64613 -73.76906 24 ft 14 kts 26°
2026-05-05 23:42 40.64703 -73.76837 24 ft 16 kts 32°
2026-05-05 23:42 40.64806 -73.76758 25 ft 15 kts 31°
2026-05-05 23:43 40.64899 -73.76685 27 ft 16 kts 31°
2026-05-05 23:43 40.65000 -73.76604 27 ft 18 kts 32°
2026-05-05 23:43 40.65092 -73.76527 27 ft 11 kts 55°
2026-05-05 23:43 40.65086 -73.76474 27 ft 6 kts 98°
2026-05-05 23:44 40.65067 -73.76420 28 ft 7 kts 147°
2026-05-05 23:44 40.65016 -73.76388 28 ft 9 kts 181°
2026-05-05 23:44 40.64953 -73.76418 28 ft 10 kts 199°
2026-05-05 23:44 40.64902 -73.76448 27 ft 5 kts 210°
2026-05-05 23:45 40.64900 -73.76450 27 ft 0 kts 210°
2026-05-05 23:45 40.64858 -73.76483 27 ft 27 kts 210°
2026-05-05 23:45 40.64584 -73.76685 26 ft 87 kts 211°
2026-05-05 23:45 40.64281 -73.77077 28 ft 10 kts 152°
2026-05-05 23:46 40.64276 -73.77076 28 ft 1 kts 154°
2026-05-05 23:46 40.64261 -73.77073 28 ft 3 kts 179°
2026-05-05 23:46 40.64239 -73.77085 28 ft 5 kts 218°
2026-05-05 23:46 40.64224 -73.77119 29 ft 4 kts 257°
2026-05-05 23:47 40.64231 -73.77133 29 ft 4 kts 335°
2026-05-05 23:47 40.64279 -73.77104 28 ft 15 kts 22°
2026-05-05 23:47 40.64313 -73.77080 28 ft 2 kts 45°
2026-05-05 23:47 40.64344 -73.77059 28 ft 12 kts 25°
2026-05-05 23:48 40.64425 -73.77010 30 ft 12 kts
2026-05-05 23:48 40.64467 -73.76989 25 ft 0 kts 356°
2026-05-05 23:48 40.64493 -73.76987 24 ft 9 kts 15°
2026-05-05 23:48 40.64545 -73.76945 25 ft 0 kts 89°
2026-05-05 23:49 40.64547 -73.76934 26 ft 4 kts 70°
2026-05-05 23:49 40.64574 -73.76907 25 ft 7 kts 22°
2026-05-05 23:49 40.64623 -73.76882 24 ft 8 kts 21°
2026-05-05 23:49 40.64684 -73.76848 25 ft 9 kts 38°
2026-05-05 23:50 40.64747 -73.76801 24 ft 12 kts 27°
2026-05-05 23:50 40.64828 -73.76744 26 ft 14 kts 32°
2026-05-05 23:50 40.64919 -73.76668 27 ft 16 kts 33°
2026-05-05 23:50 40.65021 -73.76587 27 ft 18 kts 31°
2026-05-05 23:51 40.65099 -73.76471 27 ft 20 kts 113°
2026-05-05 23:51 40.65046 -73.76383 28 ft 7 kts 172°
2026-05-05 23:51 40.64993 -73.76389 28 ft 7 kts 208°
2026-05-05 23:51 40.64952 -73.76414 28 ft 6 kts 210°
2026-05-05 23:52 40.64917 -73.76438 27 ft 0 kts 211°
2026-05-05 23:52 40.64906 -73.76447 27 ft 12 kts 211°
2026-05-05 23:52 40.64654 -73.76636 27 ft 80 kts 210°
2026-05-05 23:53 40.62300 -73.78380 750 ft 155 kts 208°
2026-05-05 23:53 40.61411 -73.79135 1510 ft 148 kts 216°
2026-05-05 23:53 40.60574 -73.79997 2122 ft 155 kts 219°
2026-05-05 23:54 40.59692 -73.80842 2677 ft 160 kts 215°
2026-05-05 23:54 40.58665 -73.81465 3215 ft 166 kts 205°
2026-05-05 23:54 40.57537 -73.81925 3759 ft 171 kts 204°
2026-05-05 23:54 40.56409 -73.82390 4287 ft 171 kts 209°
2026-05-05 23:55 40.55454 -73.83275 4763 ft 176 kts 226°
2026-05-05 23:55 40.54569 -73.84444 4888 ft 175 kts 227°
2026-05-05 23:55 40.53919 -73.85645 5038 ft 159 kts 246°
2026-05-05 23:55 40.53316 -73.86962 5492 ft 177 kts 238°
2026-05-05 23:56 40.52530 -73.88337 5871 ft 201 kts 236°
2026-05-05 23:56 40.51654 -73.89920 6222 ft 226 kts 238°
2026-05-05 23:56 40.50714 -73.91689 6758 ft 242 kts 238°
2026-05-05 23:56 40.49740 -73.93538 7478 ft 249 kts 238°
2026-05-05 23:57 40.48747 -73.95430 8254 ft 254 kts 238°
2026-05-05 23:57 40.47731 -73.97366 9038 ft 260 kts 238°
2026-05-05 23:57 40.46694 -73.99345 9789 ft 265 kts 238°
2026-05-05 23:57 40.45645 -74.01350 10366 ft 277 kts 237°
2026-05-05 23:58 40.44502 -74.03533 10727 ft 295 kts 237°
2026-05-05 23:58 40.43330 -74.05767 11235 ft 306 kts 237°
2026-05-05 23:58 40.42113 -74.08088 11936 ft 310 kts 237°
2026-05-05 23:58 40.40881 -74.10433 12730 ft 314 kts 236°
2026-05-05 23:59 40.39636 -74.12800 13510 ft 317 kts 236°
2026-05-05 23:59 40.38375 -74.15201 14232 ft 320 kts 236°
2026-05-05 23:59 40.37109 -74.17609 14935 ft 323 kts 236°
2026-05-05 23:59 40.35827 -74.20043 15641 ft 326 kts 236°
2026-05-06 00:00 40.34531 -74.22502 16339 ft 329 kts 236°
2026-05-06 00:00 40.33226 -74.24975 17036 ft 331 kts 236°
2026-05-06 00:00 40.31906 -74.27477 17742 ft 334 kts 236°
2026-05-06 00:00 40.30577 -74.29992 18410 ft 337 kts 236°
2026-05-06 00:01 40.29231 -74.32536 18986 ft 341 kts 236°
2026-05-06 00:01 40.27878 -74.35096 19552 ft 344 kts 236°
2026-05-06 00:01 40.26512 -74.37678 20121 ft 346 kts 236°
2026-05-06 00:01 40.25132 -74.40285 20697 ft 349 kts 236°
2026-05-06 00:02 40.23754 -74.42883 21233 ft 352 kts 236°
2026-05-06 00:02 40.22350 -74.45541 21784 ft 355 kts 237°
2026-05-06 00:02 40.21114 -74.48352 22299 ft 358 kts 245°
2026-05-06 00:02 40.20235 -74.51411 22793 ft 360 kts 254°
2026-05-06 00:03 40.19762 -74.54637 22989 ft 362 kts 262°
2026-05-06 00:03 40.19514 -74.57869 23018 ft 362 kts 263°
2026-05-06 00:03 40.19285 -74.61188 23010 ft 362 kts 263°
2026-05-06 00:03 40.19048 -74.64473 23005 ft 362 kts 263°
2026-05-06 00:04 40.18804 -74.67701 23001 ft 362 kts 263°
2026-05-06 00:04 40.18551 -74.70979 22997 ft 362 kts 263°
2026-05-06 00:04 40.18293 -74.74250 22996 ft 362 kts 263°
2026-05-06 00:04 40.18033 -74.77533 22996 ft 362 kts 263°
2026-05-06 00:05 40.17509 -74.84078 22995 ft 362 kts 263°
2026-05-06 00:05 40.17243 -74.87358 22997 ft 362 kts 263°
2026-05-06 00:05 40.16978 -74.90624 22998 ft 362 kts 263°
2026-05-06 00:06 40.16713 -74.93899 22998 ft 362 kts 263°
2026-05-06 00:06 40.16446 -74.97170 22999 ft 362 kts 263°
2026-05-06 00:06 40.16176 -75.00436 23018 ft 362 kts 263°
2026-05-06 00:06 40.15909 -75.03707 23021 ft 362 kts 263°
2026-05-06 00:07 40.15641 -75.06980 23013 ft 362 kts 262°
2026-05-06 00:07 40.15463 -75.09150 23016 ft 362 kts 262°
2026-05-06 00:07 40.15192 -75.12421 23010 ft 362 kts 262°
2026-05-06 00:07 40.14919 -75.15703 23010 ft 362 kts 262°
2026-05-06 00:08 40.14647 -75.18965 23176 ft 362 kts 262°
2026-05-06 00:08 40.14369 -75.22273 23604 ft 367 kts 262°
2026-05-06 00:08 40.14088 -75.25600 24067 ft 369 kts 262°
2026-05-06 00:08 40.13807 -75.28929 24538 ft 371 kts 262°
2026-05-06 00:09 40.13523 -75.32289 24983 ft 373 kts 262°
2026-05-06 00:09 40.13237 -75.35663 25425 ft 375 kts 262°
2026-05-06 00:09 40.12946 -75.39070 25858 ft 377 kts 262°
2026-05-06 00:09 40.12652 -75.42476 26284 ft 379 kts 262°
2026-05-06 00:10 40.12352 -75.45921 26740 ft 381 kts 262°
2026-05-06 00:10 40.12055 -75.49326 27163 ft 383 kts 262°
2026-05-06 00:10 40.11755 -75.52788 27564 ft 385 kts 263°
2026-05-06 00:10 40.11455 -75.56278 27959 ft 387 kts 263°
2026-05-06 00:11 40.11151 -75.59788 28347 ft 389 kts 263°
2026-05-06 00:11 40.10844 -75.63311 28718 ft 392 kts 263°
2026-05-06 00:11 40.10529 -75.66868 29084 ft 394 kts 263°
2026-05-06 00:11 40.10212 -75.70426 29440 ft 396 kts 263°
2026-05-06 00:12 40.09899 -75.74000 29781 ft 398 kts 263°
2026-05-06 00:12 40.09574 -75.77613 30095 ft 400 kts 262°
2026-05-06 00:12 40.08977 -75.81176 30393 ft 403 kts 253°
2026-05-06 00:12 40.07869 -75.84542 30694 ft 406 kts 243°
2026-05-06 00:13 40.06377 -75.87646 31009 ft 409 kts 239°
2026-05-06 00:13 40.04782 -75.90736 31299 ft 410 kts 239°
2026-05-06 00:13 40.03168 -75.93859 31608 ft 410 kts 239°
2026-05-06 00:13 40.01584 -75.96950 32002 ft 408 kts 240°
2026-05-06 00:14 40.00018 -76.00023 32378 ft 406 kts 240°
2026-05-06 00:14 39.98478 -76.03047 32735 ft 405 kts 240°
2026-05-06 00:14 39.96900 -76.06147 33090 ft 404 kts 240°
2026-05-06 00:14 39.95367 -76.09151 33418 ft 403 kts 240°
2026-05-06 00:15 39.93820 -76.12180 33760 ft 401 kts 241°
2026-05-06 00:15 39.92274 -76.15209 33972 ft 401 kts 241°
2026-05-06 00:15 39.90728 -76.18236 33987 ft 399 kts 241°
2026-05-06 00:16 39.87652 -76.24250 33969 ft 399 kts 241°
2026-05-06 00:16 39.84572 -76.30248 33961 ft 398 kts 241°
2026-05-06 00:17 39.81502 -76.36226 33963 ft 399 kts 241°
2026-05-06 00:17 39.78394 -76.42261 33960 ft 399 kts 241°
2026-05-06 00:18 39.75327 -76.48213 33966 ft 399 kts 240°
2026-05-06 00:18 39.72235 -76.54197 33968 ft 398 kts 241°
2026-05-06 00:19 39.69147 -76.60162 33949 ft 398 kts 240°
2026-05-06 00:19 39.65818 -76.65903 33964 ft 405 kts 234°
2026-05-06 00:20 39.62020 -76.71386 33978 ft 405 kts 233°
2026-05-06 00:20 39.58310 -76.76789 33973 ft 405 kts 233°
2026-05-06 00:21 39.54569 -76.82255 33977 ft 405 kts 233°
2026-05-06 00:21 39.50827 -76.87722 33999 ft 405 kts 233°
2026-05-06 00:22 39.47072 -76.93198 33999 ft 407 kts 233°
2026-05-06 00:22 39.43326 -76.98650 34005 ft 407 kts 233°
2026-05-06 00:23 39.39566 -77.04115 34002 ft 407 kts 233°
2026-05-06 00:23 39.35789 -77.09586 34020 ft 407 kts 233°
2026-05-06 00:24 39.32029 -77.15032 34024 ft 407 kts 233°
2026-05-06 00:24 39.28257 -77.20478 34020 ft 408 kts 233°
2026-05-06 00:25 39.24467 -77.25944 34020 ft 408 kts 233°
2026-05-06 00:25 39.20667 -77.31413 34009 ft 409 kts 233°
2026-05-06 00:26 39.16866 -77.36872 34020 ft 409 kts 233°
2026-05-06 00:26 39.13064 -77.42332 34013 ft 409 kts 233°
2026-05-06 00:27 39.09279 -77.47763 34006 ft 410 kts 233°
2026-05-06 00:27 39.05473 -77.53216 34010 ft 410 kts 233°
2026-05-06 00:28 39.01649 -77.58672 34009 ft 410 kts 233°
2026-05-06 00:28 38.97850 -77.64086 34012 ft 410 kts 234°
2026-05-06 00:29 38.94026 -77.69528 34007 ft 410 kts 234°
2026-05-06 00:29 38.90189 -77.74975 34009 ft 412 kts 234°
2026-05-06 00:30 38.86346 -77.80423 34007 ft 412 kts 234°
2026-05-06 00:30 38.82497 -77.85865 34005 ft 412 kts 234°
2026-05-06 00:31 38.78646 -77.91312 34003 ft 412 kts 234°
2026-05-06 00:31 38.74792 -77.96750 34009 ft 412 kts 234°
2026-05-06 00:32 38.70924 -78.02189 33983 ft 413 kts 235°
2026-05-06 00:32 38.67056 -78.07615 34021 ft 414 kts 235°
2026-05-06 00:33 38.63171 -78.13069 34012 ft 414 kts 235°
2026-05-06 00:33 38.59284 -78.18515 34015 ft 414 kts 235°
2026-05-06 00:34 38.55395 -78.23957 34016 ft 414 kts 235°
2026-05-06 00:34 38.51505 -78.29387 34000 ft 415 kts 235°
2026-05-06 00:35 38.47603 -78.34825 34005 ft 416 kts 235°
2026-05-06 00:35 38.43696 -78.40251 34023 ft 414 kts 235°
2026-05-06 00:36 38.39793 -78.45665 34026 ft 415 kts 235°
2026-05-06 00:36 38.35895 -78.51085 34030 ft 415 kts 235°
2026-05-06 00:37 38.31979 -78.56509 34015 ft 417 kts 235°
2026-05-06 00:37 38.28040 -78.61943 34039 ft 416 kts 235°
2026-05-06 00:38 38.24101 -78.67380 34023 ft 418 kts 235°
2026-05-06 00:38 38.20154 -78.72816 34031 ft 418 kts 236°
2026-05-06 00:39 38.16218 -78.78224 34062 ft 416 kts 236°
2026-05-06 00:39 38.12277 -78.83634 34061 ft 417 kts 236°
2026-05-06 00:40 38.08318 -78.89063 34065 ft 419 kts 236°
2026-05-06 00:40 38.04383 -78.94446 34058 ft 419 kts 236°
2026-05-06 00:41 38.00384 -78.99902 34051 ft 419 kts 236°
2026-05-06 00:41 37.96435 -79.05281 34041 ft 419 kts 236°
2026-05-06 00:42 37.92468 -79.10677 34061 ft 418 kts 237°
2026-05-06 00:42 37.88502 -79.16066 34074 ft 418 kts 237°
2026-05-06 00:43 37.84543 -79.21435 34097 ft 417 kts 237°
2026-05-06 00:43 37.80570 -79.26812 34107 ft 419 kts 236°
2026-05-06 00:44 37.76597 -79.32179 34116 ft 417 kts 237°
2026-05-06 00:44 37.72630 -79.37528 34124 ft 417 kts 237°
2026-05-06 00:45 37.68654 -79.42884 34104 ft 418 kts 237°
2026-05-06 00:45 37.64678 -79.48229 34108 ft 417 kts 237°
2026-05-06 00:46 37.60709 -79.53556 34092 ft 417 kts 237°
2026-05-06 00:46 37.56737 -79.58877 34082 ft 417 kts 237°
2026-05-06 00:47 37.52765 -79.64193 34070 ft 416 kts 237°
2026-05-06 00:47 37.48789 -79.69506 34061 ft 417 kts 237°
2026-05-06 00:48 37.44816 -79.74802 34082 ft 416 kts 237°
2026-05-06 00:48 37.40841 -79.80091 34095 ft 416 kts 237°
2026-05-06 00:49 37.36879 -79.85351 34096 ft 413 kts 237°
2026-05-06 00:49 37.32933 -79.90588 34095 ft 413 kts 237°
2026-05-06 00:50 37.29649 -79.94940 34097 ft 413 kts 237°
2026-05-06 00:50 37.25680 -80.00192 34094 ft 414 kts 237°
2026-05-06 00:51 37.21060 -80.06287 34109 ft 415 kts 237°
2026-05-06 00:51 37.17083 -80.11530 34117 ft 415 kts 237°
2026-05-06 00:52 37.13752 -80.15915 34121 ft 415 kts 237°
2026-05-06 00:52 37.09787 -80.21125 34137 ft 412 kts 237°
2026-05-06 00:53 37.05837 -80.26312 34116 ft 412 kts 237°
2026-05-06 00:53 37.01852 -80.31537 34133 ft 420 kts 237°
2026-05-06 00:54 36.97713 -80.36871 34134 ft 433 kts 236°
2026-05-06 00:54 36.93448 -80.42308 34122 ft 443 kts 236°
2026-05-06 00:55 36.89120 -80.47824 34097 ft 444 kts 236°
2026-05-06 00:55 36.84803 -80.53331 34073 ft 445 kts 236°
2026-05-06 00:56 36.80478 -80.58838 34091 ft 443 kts 236°
2026-05-06 00:56 36.76197 -80.64282 34137 ft 442 kts 236°
2026-05-06 00:57 36.71867 -80.69790 34144 ft 442 kts 236°
2026-05-06 00:57 36.67561 -80.75248 34154 ft 442 kts 236°
2026-05-06 00:58 36.63275 -80.80667 34115 ft 442 kts 236°
2026-05-06 00:58 36.58938 -80.86152 34133 ft 445 kts 235°
2026-05-06 00:59 36.54585 -80.91638 34100 ft 445 kts 236°
2026-05-06 00:59 36.50256 -80.97087 34110 ft 443 kts 236°
2026-05-06 01:00 36.45926 -81.02527 34121 ft 443 kts 236°
2026-05-06 01:00 36.41587 -81.07969 34142 ft 443 kts 236°
2026-05-06 01:01 36.37230 -81.13422 34159 ft 445 kts 235°
2026-05-06 01:01 36.32866 -81.18881 34174 ft 445 kts 235°
2026-05-06 01:02 36.28501 -81.24311 34172 ft 444 kts 235°
2026-05-06 01:02 36.24144 -81.29748 34159 ft 444 kts 235°
2026-05-06 01:03 36.19795 -81.35169 34140 ft 443 kts 235°
2026-05-06 01:03 36.15438 -81.40601 34130 ft 447 kts 235°
2026-05-06 01:04 36.11049 -81.46039 34110 ft 447 kts 235°
2026-05-06 01:04 36.06660 -81.51491 34089 ft 447 kts 235°
2026-05-06 01:05 36.02256 -81.56940 34085 ft 448 kts 234°
2026-05-06 01:05 35.97878 -81.62349 34081 ft 448 kts 234°
2026-05-06 01:06 35.93443 -81.67825 34086 ft 449 kts 234°
2026-05-06 01:06 35.89058 -81.73229 34099 ft 447 kts 235°
2026-05-06 01:07 35.84663 -81.78652 34146 ft 447 kts 234°
2026-05-06 01:07 35.80265 -81.84057 34137 ft 447 kts 234°
2026-05-06 01:08 35.75826 -81.89431 34128 ft 448 kts 234°
2026-05-06 01:08 35.71350 -81.94771 34110 ft 448 kts 234°
2026-05-06 01:09 35.66884 -82.00105 34119 ft 448 kts 234°
2026-05-06 01:09 35.62411 -82.05445 34126 ft 448 kts 234°
2026-05-06 01:10 35.57936 -82.10771 34134 ft 448 kts 234°
2026-05-06 01:10 35.53466 -82.16088 34135 ft 447 kts 234°
2026-05-06 01:11 35.48993 -82.21405 34111 ft 448 kts 234°
2026-05-06 01:11 35.44507 -82.26719 34129 ft 447 kts 233°
2026-05-06 01:12 35.40102 -82.32083 34124 ft 446 kts 235°
2026-05-06 01:12 35.35747 -82.37502 34117 ft 446 kts 235°
2026-05-06 01:13 35.31397 -82.42907 34121 ft 444 kts 236°
2026-05-06 01:13 35.27060 -82.48282 34126 ft 443 kts 236°
2026-05-06 01:14 35.20552 -82.56335 34151 ft 445 kts 236°
2026-05-06 01:14 35.16177 -82.61706 34154 ft 445 kts 235°
2026-05-06 01:15 35.11774 -82.66967 34135 ft 446 kts 234°
2026-05-06 01:15 35.07323 -82.72257 34137 ft 448 kts 234°
2026-05-06 01:16 35.02868 -82.77540 34106 ft 446 kts 235°
2026-05-06 01:16 34.98411 -82.82817 34128 ft 446 kts 235°
2026-05-06 01:17 34.93951 -82.88085 34133 ft 446 kts 235°
2026-05-06 01:17 34.89464 -82.93308 34129 ft 445 kts 234°
2026-05-06 01:18 34.87256 -82.95841 34064 ft 428 kts 234°
2026-05-06 01:18 34.85119 -82.98298 33608 ft 419 kts 235°
2026-05-06 01:18 34.83019 -83.00731 32906 ft 416 kts 234°
2026-05-06 01:18 34.80923 -83.03159 32232 ft 413 kts 234°
2026-05-06 01:19 34.78856 -83.05549 31600 ft 409 kts 233°
2026-05-06 01:19 34.76794 -83.07931 30969 ft 406 kts 233°
2026-05-06 01:19 34.74758 -83.10282 30373 ft 403 kts 232°
2026-05-06 01:19 34.72726 -83.12615 29751 ft 399 kts 232°
2026-05-06 01:20 34.70722 -83.14923 29099 ft 396 kts 232°
2026-05-06 01:20 34.68734 -83.17213 28523 ft 390 kts 231°
2026-05-06 01:20 34.66782 -83.19458 27954 ft 385 kts 231°
2026-05-06 01:20 34.64841 -83.21686 27243 ft 381 kts 231°
2026-05-06 01:21 34.62926 -83.23885 26556 ft 377 kts 230°
2026-05-06 01:21 34.61037 -83.26056 26023 ft 371 kts 230°
2026-05-06 01:21 34.59181 -83.28179 25547 ft 362 kts 230°
2026-05-06 01:21 34.57367 -83.30252 25090 ft 354 kts 230°
2026-05-06 01:22 34.55603 -83.32277 24624 ft 346 kts 229°
2026-05-06 01:22 34.53873 -83.34272 24150 ft 340 kts 229°
2026-05-06 01:22 34.52172 -83.36234 23731 ft 335 kts 229°
2026-05-06 01:22 34.50516 -83.38134 23260 ft 330 kts 229°
2026-05-06 01:23 34.48859 -83.40037 22794 ft 326 kts 229°
2026-05-06 01:23 34.47218 -83.41924 22344 ft 324 kts 229°
2026-05-06 01:23 34.45597 -83.43785 21897 ft 322 kts 229°
2026-05-06 01:23 34.43964 -83.45652 21440 ft 320 kts 228°
2026-05-06 01:24 34.42353 -83.47497 20996 ft 319 kts 229°
2026-05-06 01:24 34.40749 -83.49342 20591 ft 317 kts 229°
2026-05-06 01:24 34.39152 -83.51174 20189 ft 315 kts 228°
2026-05-06 01:24 34.37565 -83.52992 19787 ft 313 kts 228°
2026-05-06 01:25 34.35983 -83.54795 19389 ft 312 kts 228°
2026-05-06 01:25 34.34414 -83.56589 19001 ft 310 kts 228°
2026-05-06 01:25 34.32850 -83.58376 18625 ft 308 kts 228°
2026-05-06 01:25 34.31295 -83.60156 18249 ft 307 kts 228°
2026-05-06 01:26 34.29747 -83.61925 17802 ft 305 kts 229°
2026-05-06 01:26 34.28187 -83.63650 17406 ft 304 kts 227°
2026-05-06 01:26 34.26607 -83.65336 17022 ft 302 kts 227°
2026-05-06 01:26 34.25030 -83.67016 16648 ft 301 kts 227°
2026-05-06 01:27 34.23465 -83.68683 16298 ft 300 kts 227°
2026-05-06 01:27 34.21897 -83.70345 15980 ft 299 kts 227°
2026-05-06 01:27 34.20335 -83.72006 15638 ft 299 kts 227°
2026-05-06 01:27 34.18776 -83.73666 15301 ft 299 kts 227°
2026-05-06 01:28 34.17209 -83.75332 14941 ft 300 kts 227°
2026-05-06 01:28 34.15638 -83.77002 14580 ft 302 kts 227°
2026-05-06 01:28 34.14063 -83.78674 14215 ft 303 kts 227°
2026-05-06 01:28 34.12472 -83.80356 13837 ft 303 kts 227°
2026-05-06 01:29 34.10900 -83.82019 13407 ft 298 kts 227°
2026-05-06 01:29 34.09357 -83.83656 13011 ft 292 kts 227°
2026-05-06 01:29 34.07857 -83.85260 12651 ft 285 kts 227°
2026-05-06 01:29 34.06392 -83.86838 12291 ft 278 kts 227°
2026-05-06 01:30 34.04965 -83.88368 11947 ft 272 kts 227°
2026-05-06 01:30 34.03555 -83.89879 11598 ft 269 kts 227°
2026-05-06 01:30 34.02160 -83.91377 11298 ft 266 kts 226°
2026-05-06 01:30 34.00793 -83.92845 10970 ft 262 kts 226°
2026-05-06 01:31 33.99450 -83.94287 10643 ft 261 kts 226°
2026-05-06 01:31 33.98049 -83.95725 10314 ft 262 kts 220°
2026-05-06 01:31 33.96395 -83.96690 9978 ft 271 kts 199°
2026-05-06 01:31 33.94519 -83.96868 9620 ft 278 kts 184°
2026-05-06 01:32 33.92575 -83.96753 9230 ft 280 kts 182°
2026-05-06 01:32 33.90638 -83.96628 8951 ft 277 kts 182°
2026-05-06 01:32 33.88703 -83.96521 8789 ft 282 kts 183°
2026-05-06 01:32 33.86751 -83.96424 8652 ft 281 kts 183°
2026-05-06 01:33 33.84807 -83.96332 8523 ft 280 kts 183°
2026-05-06 01:33 33.82862 -83.96244 8396 ft 279 kts 183°
2026-05-06 01:33 33.80931 -83.96161 8272 ft 278 kts 183°
2026-05-06 01:33 33.78983 -83.96077 8138 ft 279 kts 183°
2026-05-06 01:34 33.77048 -83.95993 8103 ft 279 kts 183°
2026-05-06 01:34 33.75129 -83.96104 8101 ft 270 kts 197°
2026-05-06 01:34 33.73425 -83.96797 8033 ft 250 kts 207°
2026-05-06 01:34 33.71872 -83.97592 7927 ft 237 kts 207°
2026-05-06 01:35 33.70385 -83.98357 7698 ft 229 kts 207°
2026-05-06 01:35 33.68933 -83.99100 7372 ft 227 kts 207°
2026-05-06 01:35 33.67480 -83.99841 7029 ft 225 kts 207°
2026-05-06 01:35 33.66158 -84.00788 6690 ft 220 kts 223°
2026-05-06 01:36 33.65220 -84.02206 6340 ft 217 kts 243°
2026-05-06 01:36 33.64799 -84.03936 5946 ft 219 kts 262°
2026-05-06 01:36 33.64771 -84.05775 5552 ft 221 kts 268°
2026-05-06 01:36 33.64817 -84.07632 5205 ft 225 kts 268°
2026-05-06 01:37 33.64864 -84.09508 5118 ft 226 kts 268°
2026-05-06 01:37 33.64937 -84.11378 5101 ft 216 kts 266°
2026-05-06 01:37 33.64948 -84.13086 5107 ft 192 kts 265°
2026-05-06 01:37 33.64951 -84.14591 5101 ft 171 kts 265°
2026-05-06 01:38 33.64951 -84.15970 4938 ft 159 kts 264°
2026-05-06 01:38 33.64950 -84.17268 4748 ft 156 kts 264°
2026-05-06 01:38 33.64949 -84.18571 4552 ft 156 kts 264°
2026-05-06 01:38 33.64950 -84.19430 4433 ft 156 kts 264°
2026-05-06 01:39 33.64950 -84.20725 4233 ft 155 kts 264°
2026-05-06 01:39 33.64950 -84.22022 4023 ft 155 kts 264°
2026-05-06 01:39 33.64950 -84.23319 3819 ft 155 kts 264°
2026-05-06 01:39 33.64950 -84.24610 3626 ft 155 kts 263°
2026-05-06 01:40 33.64951 -84.25891 3423 ft 153 kts 263°
2026-05-06 01:40 33.64951 -84.27161 3232 ft 152 kts 263°
2026-05-06 01:40 33.64951 -84.28419 3031 ft 151 kts 264°
2026-05-06 01:40 33.64951 -84.29690 2838 ft 153 kts 263°
2026-05-06 01:41 33.64953 -84.30923 2698 ft 138 kts 262°
2026-05-06 01:41 33.64952 -84.32061 2504 ft 135 kts 262°
2026-05-06 01:41 33.64951 -84.33187 2310 ft 135 kts 262°
2026-05-06 01:41 33.64951 -84.34312 2121 ft 135 kts 263°
2026-05-06 01:42 33.64951 -84.35430 1945 ft 134 kts 263°
2026-05-06 01:42 33.64952 -84.36552 1751 ft 135 kts 264°
2026-05-06 01:42 33.64960 -84.37661 1585 ft 134 kts 265°
2026-05-06 01:42 33.64942 -84.38799 1400 ft 135 kts 268°
2026-05-06 01:43 33.64958 -84.39927 1217 ft 136 kts 268°
2026-05-06 01:43 33.64957 -84.41052 1034 ft 134 kts 267°
2026-05-06 01:43 33.64954 -84.42034 1012 ft 92 kts 273°
2026-05-06 01:43 33.64947 -84.42568 1012 ft 45 kts 256°
2026-05-06 01:44 33.64863 -84.42800 1012 ft 0 kts 223°
2026-05-06 01:48 33.64862 -84.42801 1012 ft 1 kts 223°
2026-05-06 01:49 33.64797 -84.42847 1012 ft 5 kts 163°
2026-05-06 01:49 33.64788 -84.42844 1012 ft 0 kts 180°